Location: Perryvale
(54.4667°N, 113.3833°W)
Time: 00:37:31
(UTC+00:00)

SR - Pass Details

Date: 25 May 2024
Orbit: 580 x 858 km, 66.7° (Epoch: 13 June)

Event Time Altitude Azimuth Distance (km) Brightness Sun altitude
Rises 04:49:00 0° 292° (WNW) 3,049 ? -7.0°
Reaches altitude 10° 04:52:05 10° 312° (NW) 2,078 ? -7.2°
Maximum altitude 04:55:17 18° 355° (N) 1,570 ? -7.5°
Drops below altitude 10° 04:58:20 10° 39° (NE) 1,982 ? -7.8°
Sets 05:01:12 0° 59° (ENE) 2,852 ? -8.0°
